Etusivu
METAR-TAF:

METAR-TAF

Lentoasemat :

Dodge Center Airport (Dodge Center Municipal)

Dodge Center, Minnesota, Yhdysvallat

Leveyspiiri: 44-01-05N, Pituuspiiri: 092-49-53W, korkeus merenpinnasta: 398 m

Tämänhetkinen sää

Tämä raportti tehtiin 13 minuuttia sitten, kello 13.19 UTC
Tuuli 13 kn etelästä
Lämpötila -8°C
Kosteus 73%
Ilmanpaine 1012 hPa
Näkyvyys: 16.1 km
selkeää

METAR: KTOB 131319Z AUTO 18013KT 10SM CLR M08/M12 A2988 RMK AO2

Aika: 07:32 (13:32 UTC)


TAF: puuttuu

Säähavainnot ja -ennusteet yli 4000 lentoasemalta (METAR- ja TAF-raportit).

Käytössä olevat sääasemat on merkitty karttaan keltaisilla ja punaisilla pisteillä.

Aseta hiiri pisteen päälle nähdäksesi sääaseman nimen.

Klikkaa sitten nähdäksesi säähavainnot ja -ennusteet.

Kartan vaihtaminen: klikkaa mustalla rastilla varustettuja vihreitä pisteitä, niin voit zoomata sisään; viivalla varustettua vihreää pistettä, niin voit zoomata ulos tai vihreitä nuolia, niin pääset viereisille kartoille.


METAR-TAF: